Home > Weather > Rio Branco > Past weeks

Flag for Brazil Past Weather in Rio Branco, Acre, Brazil — Yesterday and Last 2 Weeks

Now
75 °F

Passing clouds.


Feels Like: 76 °F
Forecast: 64 / 88 °F
Wind: 5 mph from Southwest

Location: Rio Branco Airport

Current Time: Jun 29, 2016 at 6:47:56 PM

Latest Report: Jun 29, 2016 at 6:00 PM


Visibility: N/A

Pressure: 29.95 "Hg

Humidity: 78%

Dew Point: 68 °F

Location of Rio BrancoLocation

Past Weather in Rio Branco — Graph

°F

Rio Branco Temperature Yesterday

Maximum temperature yesterday: 81 °F (at 3:00 PM)
Minimum temperature yesterday: 64 °F (at 6:00 AM)
Average temperature yesterday: 71 °F

High & Low Weather Summary for the Past Weeks

 TemperatureHumidityPressure
High91 °F (Jun 26, 1:00 PM)100% (Jun 14, 10:00 PM)30.15 "Hg (Jun 14, 10:00 PM)
Low63 °F (Jun 22, 5:00 AM)43% (Jun 23, 2:00 PM)29.89 "Hg (Jun 24, 3:00 PM)
Average75 °F78%30.01 "Hg
* Reported Jun 14 5:00 PM — Jun 29 5:00 PM, Rio Branco, Weather by CustomWeather, © 2016

Note: Actual official high and low records may vary slightly from our data, if they occured in-between our weather recording intervals... More about our weather records

Advertising

Rio Branco Weather History for the Previous 24 Hours

Scroll right to see more
 ConditionsComfort  
Time TempWeatherWind HumidityBarometerVisibility
5:00 PM
Wed, Jun 29
82 °FScattered clouds.5 mph62%29.95 "HgN/A
4:00 PM86 °FScattered clouds.3 mph55%29.92 "HgN/A
3:00 PM86 °FScattered clouds.No wind52%29.95 "HgN/A
2:00 PM86 °FScattered clouds.6 mph52%29.95 "HgN/A
1:00 PM86 °FScattered clouds.5 mph52%29.98 "HgN/A
12:00 PM82 °FPassing clouds.6 mph55%30.01 "HgN/A
11:00 AM81 °FSunny.8 mph58%30.04 "Hg10 mi
10:00 AM79 °FSunny.6 mph65%30.07 "Hg10 mi
9:00 AM75 °FSunny.7 mph69%30.07 "Hg10 mi
8:00 AM70 °FSunny.8 mph83%30.07 "Hg10 mi
7:00 AM66 °FSunny.2 mph94%30.04 "Hg10 mi
6:00 AM64 °FFog.2 mph94%30.04 "Hg3 mi
5:00 AM64 °FClear.3 mph100%30.01 "Hg4 mi
4:00 AM66 °FClear.3 mph94%30.01 "Hg4 mi
3:00 AM66 °FClear.3 mph100%30.01 "Hg4 mi
2:00 AM66 °FClear.3 mph94%30.01 "Hg4 mi
1:00 AM66 °FClear.2 mph94%30.04 "Hg4 mi
12:00 AM66 °FClear.3 mph100%30.04 "Hg5 mi
11:00 PM
Tue, Jun 28
66 °FClear.No wind100%30.04 "Hg4 mi
10:00 PM68 °FClear.2 mph100%30.04 "Hg4 mi
9:00 PM70 °FClear.2 mph94%30.04 "Hg4 mi
8:00 PM72 °FClear.3 mph88%30.04 "Hg10 mi
7:00 PM72 °FClear.5 mph88%30.01 "Hg6 mi
6:00 PM73 °FClear.3 mph83%30.01 "Hg10 mi
Weather by CustomWeather, © 2016

See weather overviewHow to use our weather pages